Location: Goll?ig?dem
(16.6403°N, 80.7265°E)
Time: 12:16:55
(UTC+00:00)

Daily predictions for brighter satellites

Satellite Brightness Start Highest point End
(mag) Time Altitude Azimuth Time Altitude Azimuth Time Altitude Azimuth
YAOGAN 1 4.2 12:42:32 10° ESE 12:44:41 14° ENE 12:46:51 10° NE
Cosmos 1892 Rocket 3.5 12:40:30 10° S 12:44:51 69° E 12:49:10 10° N
GPS 2-15 Rocket1 3.9 12:43:12 10° W 12:47:43 52° SSW 12:52:14 10° ESE
PSLV R/B 4.0 12:44:02 10° NNE 12:48:12 67° E 12:52:22 10° S
Cosmos 1400 Rocket 4.3 12:44:39 10° NNW 12:48:30 42° W 12:52:17 10° SSW
Delta 168 3.4 12:46:53 10° NW 12:49:35 27° NNE 12:52:36 10° ENE
GPS 2-12 Rocket1 3.1 12:46:04 10° WSW 12:50:28 71° SSE 12:54:52 10° E
Feng Yun 1-1 Rocket 4.4 12:45:38 10° SSE 12:50:46 47° ENE 12:55:55 10° N
Cosmos 1939 Rocket 2.9 12:50:19 10° SSE 12:54:26 76° ENE 12:58:33 10° N
ARIANE 44L R/B 4.3 12:53:00 10° SW 12:55:35 25° SSE 13:02:17 10° ESE
Delta 128 4.3 12:54:53 10° WNW 12:59:13 52° SSW 13:03:41 10° SE
CZ-4 R/B 2.4 12:56:40 10° SE 13:00:10 26° ENE 13:03:38 10° NNE
NOSS 2-1 (C) 4.0 12:56:41 10° S 13:00:41 34° ESE 13:03:42 11° NE
Cosmos 1606 Rocket 3.6 12:56:31 10° N 13:00:49 55° E 13:05:10 10° SSE
H-2A R/B 3.0 12:57:14 10° SE 13:00:59 22° ENE 13:04:44 10° NNE
Palapa 6 Rocket 3.4 12:56:04 10° WNW 13:01:28 59° N 13:05:36 12° E
NOSS 2-1 (D) 3.7 13:02:25 10° S 13:06:33 41° ESE 13:09:24 13° NE
CZ-3A R/B 2.7 13:04:10 10° W 13:07:10 66° SSW 13:16:20 10° ESE
MOS 1 Rocket 4.2 13:03:34 10° N 13:07:38 45° WNW 13:11:44 10° SSW
Cosmos 1703 4.3 13:05:31 10° SSE 13:08:42 24° E 13:11:22 13° NE
Meteor 2-10 Rocket 4.3 13:04:55 10° NNE 13:09:35 30° E 13:14:06 10° SE
Meteor 2-13 Rocket 4.4 13:03:45 10° S 13:09:45 67° E 13:15:47 10° NNE
FUSE 4.4 13:04:53 10° WNW 13:09:59 46° NNE 13:14:01 16° E
SWIFT 2.6 13:06:02 10° W 13:10:15 58° N 13:13:23 17° ENE
SJ 16-02 1.3 13:06:56 10° S 13:11:20 78° ESE 13:15:43 10° NNE
Okean 1-7 Rocket 3.7 13:08:55 10° S 13:13:23 83° W 13:17:54 10° N
Cosmos 1818 4.2 13:10:30 10° SW 13:15:44 55° WNW 13:21:03 10° NNE
DMSP B5D1-3 4.5 13:10:46 10° NNE 13:15:51 87° E 13:20:57 10° SSW
ARGOS 4.0 13:16:31 10° SE 13:20:52 26° ENE 13:25:14 10° NNE
Meteor 1-21 Rocket 4.1 13:15:37 10° S 13:21:09 68° E 13:26:37 10° NNE
Cosmos 1844 3.7 13:16:15 10° SSW 13:21:49 85° WNW 13:27:27 10° NNE
Cosmos 1898 Rocket 4.0 13:18:58 10° SSE 13:23:49 37° E 13:27:13 18° NE
Cosmos 2058 Rocket 3.3 13:20:45 10° N 13:25:05 47° E 13:29:25 10° SSE
Cosmos 2228 3.9 13:22:22 10° NNW 13:26:31 52° W 13:30:41 10° S
Cosmos 1943 3.1 13:25:25 10° N 13:31:01 66° ENE 13:36:34 10° SSE
Cosmos 2279 Rocket 4.3 13:24:57 10° N 13:31:09 69° W 13:37:19 10° S
Cosmos 1315 Rocket 4.2 13:27:44 10° NNW 13:31:30 41° W 13:35:19 10° SSW
Helios 1A Rocket 3.1 13:29:53 10° SSE 13:33:48 46° ENE 13:37:45 10° N
Okean-O 2.5 13:34:29 10° SSE 13:38:54 80° ENE 13:43:19 10° N
Cosmos 1340 2.9 13:35:55 10° SSE 13:39:30 45° E 13:39:52 43° ENE
Cosmos 1455 4.1 13:42:21 17° SE 13:42:21 17° SE 13:43:28 10° SSE
Cosmos 1626 Rocket 3.5 13:35:52 10° S 13:40:10 81° W 13:44:31 10° N
CZ-2C R/B 2.7 13:40:37 10° NNE 13:46:12 88° W 13:51:49 10° SSW
Cosmos 773 Rocket 3.8 13:41:27 10° N 13:46:34 78° ENE 13:51:41 10° SSE
Cosmos 1428 Rocket 4.4 13:42:35 10° S 13:48:42 63° E 13:54:42 11° NNE
GPS 2-14 Rocket1 3.1 13:45:11 10° WNW 13:49:11 47° N 13:49:42 44° NNE
DMSP B5D2-2 4.0 13:45:45 20° NNE 13:49:21 65° E 13:54:34 10° S
Cosmos 1092 Rocket 4.0 13:46:23 10° S 13:52:39 82° W 13:58:52 10° N
Hubble Space Telescope 2.4 13:49:26 10° WNW 13:52:45 23° NNW 13:53:14 22° N
Cosmos 2278 Rocket 3.1 13:49:42 10° SSE 13:53:46 29° ESE 13:53:46 29° ESE
Milstar 3 3.4 13:46:13 10° SW 13:55:07 49° SSE 13:57:51 33° E
Ariane H10+ 4.4 13:55:53 10° SSW 13:57:16 13° S 13:57:29 12° SSE
Cosmos 1758 Rocket 3.9 13:55:49 10° S 13:59:12 46° SE 13:59:12 46° SE
Cosmos 1937 Rocket 3.3 13:58:52 10° S 14:04:05 73° ESE 14:05:08 56° NE
Cosmos 44 4.2 14:03:32 10° SW 14:07:44 41° WNW 14:09:51 25° NNW
Meteor 2-1 Rocket 4.0 14:03:53 10° N 14:09:25 85° E 14:14:54 10° S
ATLAS 3B R/B 3.4 14:08:43 10° NW 14:15:45 57° WSW 14:22:59 10° S
CSL-04 Rocket 3.6 14:11:27 10° S 14:16:45 80° WSW 14:22:07 10° NNW
GEOS 3 Rocket 4.4 14:21:16 34° N 14:23:00 47° WNW 14:27:55 10° SW
Iridium 4 Rocket 3.6 14:24:41 58° NNW 14:25:39 73° W 14:30:38 10° S
EPKM 4.1 14:06:57 10° WSW 14:27:57 69° NNW 14:28:33 65° NNE
Sakura Rocket 4.1 14:28:06 10° WSW 14:32:20 46° SW 14:32:20 46° SW
H-2A R/B 4.2 14:36:27 10° SSW 14:40:11 22° W 14:43:57 10° NW
Milstar 3 Cent rocket 4.4 15:27:04 10° WNW 15:50:30 75° SW 15:50:30 75° SW
ATLAS 3B CENTAUR R/B 4.5 21:49:19 39° NE 21:49:19 39° NE 22:00:18 10° E
CZ-3A R/B 4.2 22:01:15 56° NNE 22:01:15 56° NNE 22:09:15 10° ENE
Atlas Centaur 2 3.9 22:08:01 41° E 22:08:01 41° E 22:13:24 10° ENE
Milstar 3 4.3 22:09:31 78° NNW 22:10:39 82° NNE 22:33:58 10° ESE
BREEZE-M DEB (TANK) 4.3 22:35:42 74° SSW 22:36:35 84° SE 23:01:35 10° NE
Aurora 2 Rocket 3.9 22:50:22 45° ESE 22:50:22 45° ESE 22:55:30 10° ENE
Cosmos 2333 Rocket 3.7 22:56:41 26° NNE 22:56:41 26° NNE 22:59:02 10° NNE
Skynet4D Del rocket 4.3 22:59:55 59° N 23:00:12 59° NNE 23:07:39 10° E
Cosmos 1354 Rocket 4.3 23:03:31 64° SE 23:03:31 64° SE 23:08:01 10° SSE
Meteor 1-22 Rocket 4.4 23:00:27 10° S 23:05:51 68° E 23:11:29 10° NNE
ADEOS Rocket 4.3 23:00:26 10° S 23:05:31 36° SW 23:05:31 36° SW
ADEOS 3.8 23:08:45 59° S 23:08:45 59° S 23:12:57 10° S
Cosmos 2219 Rocket 2.1 23:02:47 10° SSW 23:08:55 74° NNE 23:13:59 10° NNE
COSMOS 2428 2.7 23:06:50 10° S 23:12:32 77° ESE 23:18:13 10° NNE
Tsikada Rocket 4.4 23:07:01 12° N 23:12:45 59° E 23:18:47 10° SSE
Centaur AC-64 3.6 23:13:08 64° NW 23:14:07 80° NNE 23:37:30 10° ESE
ATLAS 2A CENTAUR R/B 3.9 23:17:07 25° SE 23:17:07 25° SE 23:19:26 10° ESE
IUS-12 SRM-1 3.3 23:17:49 65° ENE 23:17:49 65° ENE 23:20:23 10° ENE
OAO 3 Copernicus 4.5 23:17:05 61° S 23:17:36 66° SE 23:22:36 10° ENE
COSMOS 2455 2.9 23:16:57 41° N 23:19:07 74° ENE 23:25:04 10° SSE
USA 267 3.3 23:14:05 10° SSE 23:20:29 58° SW 23:21:35 52° W
Cosmos 1356 Rocket 4.1 23:17:42 10° S 23:21:33 50° E 23:25:27 10° NNE
Cosmos 1461 3.5 23:20:00 10° SSW 23:24:23 62° ESE 23:28:59 10° NNE
Cosmos 1816 Rocket 4.3 23:22:08 27° N 23:25:43 83° W 23:31:52 10° S
Chandra Rocket (1) 3.6 23:28:21 25° N 23:28:21 25° N 23:30:13 10° NE
SJ 16-02 4.3 23:29:25 10° NE 23:31:18 13° ENE 23:33:10 10° E
BREEZE-M R/B 3.7 23:37:23 44° W 23:38:25 50° WSW 23:42:09 10° SSE
CZ-2C R/B 1.4 23:39:31 53° N 23:39:31 53° N 23:43:06 10° NE
H-2A R/B 2.1 23:39:08 10° S 23:43:22 57° WSW 23:44:12 48° WNW
Gbstr 26 Del rocket 4.4 23:37:25 10° SSW 23:44:04 77° SE 23:51:55 10° NE
Cosmos 2233 Rocket 4.4 23:38:31 10° SSW 23:44:17 38° W 23:50:04 10° NNW
H-2A R/B 3.6 23:41:05 10° NNE 23:44:41 50° E 23:48:18 10° S
FALCON 9 DEB 4.1 23:46:41 34° N 23:46:41 34° N 23:48:49 10° NNE
SJ-12 4.0 23:45:42 48° NW 23:46:15 52° WNW 23:50:15 10° SSW
IUS R/B (1) 3.2 23:47:46 26° N 23:47:46 26° N 23:49:12 10° NE
Aureole 2 Rocket 4.4 23:44:55 10° NNE 23:47:20 22° ENE 23:49:42 10° SE
Cosmos 2263 Rocket 3.6 23:49:59 20° WSW 23:49:59 20° WSW 23:52:51 10° SSW
SL-24 R/B 3.9 23:47:52 10° SSE 23:51:28 68° ENE 23:55:12 10° N
Cosmos 1455 Rocket 3.2 23:50:06 10° S 23:54:29 73° E 23:58:50 10° N
